Location: Unspecified
(0.0000°N, 0.0000°E)
Time: 18:01:15
(UTC+00:00)

Amateur Radio Satellites - All Passes

Search period start: 20 September 2014 17:31
Search period end: 21 September 2014 17:31
Location: Unspecified, 0.0000°N, 0.0000°E

Satellite Date Start Highest point End Downlink Frequencies (MHz)
Time Altitude Azimuth
MaSat-1 20 Sep 17:49:04 17:50:41 14° 70° (ENE) 17:52:13 437.345 MHz
JAS-2 20 Sep 17:55:28 18:01:15 52° 256° (WSW) 18:06:27 435.800 - 435.900 CW/SSB, 435.910 FM
SO-67 20 Sep 18:21:06 18:24:09 29° 79° (E) 18:27:10 435.3500 MHz FM
PANSAT 20 Sep 18:28:03 18:30:00 13° 152° (SSE) 18:31:57 not established
STRAND 1 20 Sep 18:55:30 19:00:22 44° 283° (WNW) 19:05:15 ?
AO-40 20 Sep 19:01:37 22:45:54 82° 185° (S) 05:32:06 Beacon 2401.320
KITSAT 1 20 Sep 19:06:26 19:09:59 13° 291° (WNW) 19:13:33 435.175 FM
HO-68 20 Sep 19:15:36 19:16:52 11° 74° (ENE) 19:18:09 435.675 MHz FM
SO-50 20 Sep 19:44:35 19:48:53 54° 112° (ESE) 19:53:11 436.795 FM
PANSAT 20 Sep 20:06:20 20:10:12 87° 149° (SSE) 20:14:03 not established
Oscar 11 20 Sep 20:37:15 20:40:09 17° 78° (ENE) 20:43:02 145.825 FM, Beacon 2401.500 USB
Oscar 10/S400 20 Sep 20:47:34 17:58:01 40° 358° (N) 04:05:09 145.825 - 145.975 CW/USB, Beacon 145.810 USB
Sapphire 20 Sep 20:52:03 20:53:33 11° 70° (ENE) 20:55:02 437.095 MHz 1200 baud AX-25 AFSK
UKube-1 20 Sep 20:53:42 20:57:51 46° 78° (ENE) 21:01:59 145.840 MHz, 145.915 MHz
HO-68 20 Sep 20:57:05 21:04:11 72° 256° (WSW) 21:11:17 435.675 MHz FM
PCSat 20 Sep 21:16:02 21:20:28 26° 71° (ENE) 21:24:54 145.825 MHz
UOSAT-12 20 Sep 21:17:16 21:21:20 34° 112° (ESE) 21:25:27 437.025 FM, 437.400 FM
PANSAT 20 Sep 21:48:18 21:50:22 14° 332° (NNW) 21:52:26 not established
FUNcube-1 20 Sep 22:04:22 22:08:37 83° 259° (WSW) 22:12:57 145.950 - 145.970 MHz USB
Oscar 11 20 Sep 22:12:57 22:16:04 19° 258° (WSW) 22:19:10 145.825 FM, Beacon 2401.500 USB
ISS 20 Sep 22:27:12 22:30:07 28° 126° (SE) 22:33:01 145.800 FM
Sapphire 20 Sep 22:31:34 22:36:43 46° 251° (WSW) 22:41:53 437.095 MHz 1200 baud AX-25 AFSK
PCSat 20 Sep 22:59:41 23:03:36 21° 250° (WSW) 23:07:33 145.825 MHz
UOSAT-12 20 Sep 23:00:15 23:01:15 11° 293° (WNW) 23:02:16 437.025 FM, 437.400 FM
RS-15 21 Sep 00:07:21 00:07:46 10° 116° (ESE) 00:08:11 29.354 - 29.394 USB, Beacon 29.352 USB
Oscar 19 21 Sep 00:08:44 00:10:40 12° 103° (ESE) 00:12:35 437.125 CW, 437.150 USB
Oscar 16 21 Sep 00:44:52 00:49:37 39° 103° (ESE) 00:54:21 437.025 USB, Beacon 2401.1428
JAS-1B 21 Sep 00:47:35 00:51:46 20° 107° (ESE) 00:56:18 435.800 - 435.900 CW/SSB
AO-Echo 21 Sep 00:49:54 00:53:11 17° 103° (ESE) 00:56:31 ?
Gurwin Techsat 1B 21 Sep 01:27:36 01:30:37 15° 103° (ESE) 01:33:38 435.225 FM
ITAMSAT 1 21 Sep 01:30:28 01:35:26 45° 103° (ESE) 01:40:24 435.822 SSB
Uribyol 2 21 Sep 01:34:15 01:39:20 55° 103° (ESE) 01:44:26 436.500 FM
Oscar 19 21 Sep 01:44:59 01:49:43 39° 282° (WNW) 01:54:27 437.125 CW, 437.150 USB
TMSAT-1 21 Sep 02:02:22 02:06:50 28° 103° (ESE) 02:11:19 436.925 FM
AO-27 21 Sep 02:05:33 02:10:43 66° 283° (WNW) 02:15:55 436.795 MHz FM
Saudisat 1A 21 Sep 02:08:15 02:12:00 28° 68° (ENE) 02:15:45 436.775 MHz
RS-15 21 Sep 02:08:45 02:20:21 84° 111° (ESE) 02:31:24 29.354 - 29.394 USB, Beacon 29.352 USB
Oscar 16 21 Sep 02:26:42 02:28:41 12° 283° (WNW) 02:30:40 437.025 USB, Beacon 2401.1428
AO-Echo 21 Sep 02:27:20 02:31:38 29° 282° (WNW) 02:36:04 ?
JAS-1B 21 Sep 02:36:56 02:42:02 32° 281° (W) 02:47:44 435.800 - 435.900 CW/SSB
Gurwin Techsat 1B 21 Sep 03:05:34 03:10:17 34° 282° (WNW) 03:15:02 435.225 FM
ITAMSAT 1 21 Sep 03:13:29 03:14:38 11° 283° (WNW) 03:15:47 435.822 SSB
OPAL 21 Sep 03:29:11 03:32:25 17° 75° (ENE) 03:35:38 ?
Uosat F 21 Sep 03:38:15 03:43:00 43° 103° (ESE) 03:47:46 435.120 FM
TMSAT-1 21 Sep 03:42:54 03:46:29 19° 283° (WNW) 03:50:04 436.925 FM
Saudisat 1A 21 Sep 03:49:24 03:51:20 13° 247° (WSW) 03:53:16 436.775 MHz
AO-7 21 Sep 03:51:33 03:59:48 75° 106° (ESE) 04:08:07 29.400 - 29.500 MHz
RS-15 21 Sep 04:27:40 04:32:22 13° 293° (WNW) 04:37:02 29.354 - 29.394 USB, Beacon 29.352 USB
OPAL 21 Sep 05:06:36 05:11:00 30° 256° (WSW) 05:15:26 ?
KITSAT 1 21 Sep 05:14:44 05:22:47 88° 70° (ENE) 05:30:52 435.175 FM
Uosat F 21 Sep 05:20:43 05:21:31 10° 283° (WNW) 05:22:19 435.120 FM
JAS-2 21 Sep 05:25:01 05:32:01 79° 103° (ESE) 05:39:44 435.800 - 435.900 CW/SSB, 435.910 FM
Hamsat 21 Sep 05:31:06 05:35:17 83° 101° (E) 05:39:28 145.90 MHz
MaSat-1 21 Sep 05:34:45 05:38:31 26° 105° (ESE) 05:42:32 437.345 MHz
AO-7 21 Sep 05:48:58 05:52:09 13° 287° (WNW) 05:55:21 29.400 - 29.500 MHz
STRAND 1 21 Sep 05:49:59 05:54:17 28° 77° (ENE) 05:58:32 ?
SO-67 21 Sep 06:06:23 06:08:36 16° 101° (E) 06:10:49 435.3500 MHz FM
PANSAT 21 Sep 06:15:21 06:17:22 14° 28° (NNE) 06:19:24 not established
MaSat-1 21 Sep 07:12:02 07:15:02 17° 289° (WNW) 07:18:10 437.345 MHz
STRAND 1 21 Sep 07:29:56 07:33:11 17° 257° (WSW) 07:36:26 ?
SO-67 21 Sep 07:40:21 07:41:22 11° 281° (W) 07:42:23 435.3500 MHz FM
PANSAT 21 Sep 07:53:42 07:57:32 89° 211° (SSW) 08:01:24 not established
SO-50 21 Sep 07:57:23 08:02:15 77° 248° (WSW) 08:07:05 436.795 FM
Oscar 11 21 Sep 08:45:54 08:49:18 23° 102° (ESE) 08:52:42 145.825 FM, Beacon 2401.500 USB
HO-68 21 Sep 08:48:30 08:55:41 85° 284° (WNW) 09:02:54 435.675 MHz FM
UKube-1 21 Sep 09:03:13 09:07:31 65° 102° (ESE) 09:11:52 145.840 MHz, 145.915 MHz
Sapphire 21 Sep 09:25:04 09:29:58 36° 109° (ESE) 09:34:51 437.095 MHz 1200 baud AX-25 AFSK
UOSAT-12 21 Sep 09:27:15 09:31:47 63° 68° (ENE) 09:36:15 437.025 FM, 437.400 FM
PANSAT 21 Sep 09:35:44 09:37:44 14° 208° (SSW) 09:39:44 not established
PCSat 21 Sep 09:51:23 09:56:47 82° 109° (ESE) 10:02:10 145.825 MHz
ISS 21 Sep 10:03:16 10:05:39 18° 54° (NE) 10:08:02 145.800 FM
FUNcube-1 21 Sep 10:15:10 10:19:36 58° 282° (WNW) 10:23:57 145.950 - 145.970 MHz USB
Oscar 11 21 Sep 10:22:57 10:25:13 14° 282° (WNW) 10:27:30 145.825 FM, Beacon 2401.500 USB
Sapphire 21 Sep 11:10:14 11:13:07 15° 290° (WNW) 11:16:02 437.095 MHz 1200 baud AX-25 AFSK
ISS 21 Sep 11:40:26 11:42:09 14° 234° (SW) 11:43:53 145.800 FM
Oscar 19 21 Sep 12:39:52 12:44:27 32° 77° (ENE) 12:49:02 437.125 CW, 437.150 USB
JAS-1B 21 Sep 12:55:09 13:03:45 37° 78° (ENE) 13:11:23 435.800 - 435.900 CW/SSB
AO-27 21 Sep 13:03:03 13:06:49 21° 77° (ENE) 13:10:34 436.795 MHz FM
AO-Echo 21 Sep 13:18:21 13:22:53 37° 78° (ENE) 13:27:16 ?
Oscar 16 21 Sep 13:18:21 13:23:32 80° 258° (WSW) 13:28:42 437.025 USB, Beacon 2401.1428
RS-15 21 Sep 13:49:43 14:01:12 71° 70° (ENE) 14:13:12 29.354 - 29.394 USB, Beacon 29.352 USB
AO-40 21 Sep 13:52:07 13:57:35 88° 11° (NNE) 14:14:03 Beacon 2401.320
Gurwin Techsat 1B 21 Sep 14:04:11 14:09:13 44° 78° (ENE) 14:14:14 435.225 FM
ITAMSAT 1 21 Sep 14:05:29 14:10:37 67° 257° (WSW) 14:15:44 435.822 SSB
Uribyol 2 21 Sep 14:09:19 14:14:21 55° 257° (WSW) 14:19:23 436.500 FM
Saudisat 1A 21 Sep 14:13:58 14:18:08 43° 112° (ESE) 14:22:17 436.775 MHz
Oscar 19 21 Sep 14:20:35 14:23:31 15° 257° (WSW) 14:26:26 437.125 CW, 437.150 USB
AO-7 21 Sep 14:30:15 14:34:00 14° 73° (ENE) 14:37:43 29.400 - 29.500 MHz
TMSAT-1 21 Sep 14:39:47 14:45:05 81° 78° (ENE) 14:50:21 436.925 FM
AO-27 21 Sep 14:41:57 14:46:04 24° 257° (WSW) 14:50:09 436.795 MHz FM
JAS-1B 21 Sep 14:45:15 14:53:46 36° 254° (WSW) 15:01:31 435.800 - 435.900 CW/SSB
AO-Echo 21 Sep 15:00:03 15:01:19 11° 256° (WSW) 15:02:34 ?
KITSAT 1 21 Sep 15:32:37 15:35:40 12° 112° (ESE) 15:38:43 435.175 FM
Gurwin Techsat 1B 21 Sep 15:47:23 15:48:53 11° 257° (WSW) 15:50:22 435.225 FM
OPAL 21 Sep 15:59:34 16:04:16 40° 104° (ESE) 16:08:55 ?
RS-15 21 Sep 16:05:55 16:13:29 19° 246° (WSW) 16:21:19 29.354 - 29.394 USB, Beacon 29.352 USB
Uosat F 21 Sep 16:07:51 16:12:52 79° 257° (WSW) 16:17:50 435.120 FM
AO-7 21 Sep 16:18:03 16:26:21 71° 254° (WSW) 16:34:36 29.400 - 29.500 MHz
JAS-2 21 Sep 17:00:57 17:06:19 38° 79° (E) 17:11:13 435.800 - 435.900 CW/SSB, 435.910 FM
MaSat-1 21 Sep 17:27:50 17:28:10 10° 70° (ENE) 17:28:30 437.345 MHz
